Powrót do katalogu

SL-12 R/B(2)

AktywnyGEO
NORAD 19777·ROCKET BODY·🇷🇺 Russia

Wystrzelony Oct 20, 1988 z Baikonur Cosmodrome

Loading…

TLE

ŚwieżeSource: Space-Track

Epoka: Sep 13, 2026, 16:02 UTC

1 19777U 88095F   26256.66858090 -.00000080  00000-0  00000-0 0  9993
2 19777  12.6254 333.1770 0016741 268.0274  93.2379  0.97937211123160

Śledź SL-12 R/B(2) w czasie rzeczywistym z AllMySat

Download on the App Store